Location: Unspecified
(0.0000°N, 0.0000°E)
Time: 05:27:35
(UTC+00:00)

ISS - Pass Details

Date: 01 January 2026
Orbit: 417 x 425 km, 51.6° (Epoch: 29 March)

Event Time Altitude Azimuth Distance (km) Brightness Sun altitude
Exits shadow 21:52:14 -53° 46° (NE) 10,734 3.5 -50.7°
Enters shadow 22:50:05 -18° 256° (WSW) 5,061 2.3 -60.9°
Maximum altitude 07:23:09 15° 54° (NE) 1,268 -0.8 18.3°
